Погода Октябрьское

Погода Октябрьское : погода сейчас, прогноз погоды и архив. Всё, что Вы хотите узнать о погоде Октябрьское!

Поиск расширенной информации на нашем сайте:

Другие новости

Новости СМИ2

Главная страница сайта

Новости сайта

03.07.2017

Напоминаем, что на нашем специализированном сайте Метеоцентр.Азия вы можете получить высокодетализированные автоматические прогнозы погоды по пунктам России, СНГ и мира в авиационном формате (включающие направление и скорость ветра, видимость, явления погоды, количество и форму облачности, нижнюю и верхнюю границу облачности).


Погода Октябрьское - сегодня

Время (UTC), дата Ветер
(°,м/с) 
Видим.   Явления Облачность Т
(°С)
Тd
(°С)
f(%) Тe
(°С)
Pmin
(гПа)
dP
(гПа)
Po
(мм)
O2
(г/м3)
Тmin Tmax R s Состояние
почвы
15 14.02.18 тихо ()   4000 м  слаб. снег  10/0 средняя 
[As op]
-14.6 -16.6 85 -15  1026.3  -0.2  762  326    -12.7  0.8     
18 14.02.18 тихо ()   4000 м  слаб. снег  10/0 средняя 
[As op]
-13 -15 85 -13  1026.3  0.1  762  324           
21 14.02.18 тихо ()   4000 м  слаб. снег  10/0 средняя 
[As op]
-13.2 -15.2 85 -13  1026.6  0.2  763  324           
00 15.02.18 090 (В) 4000 м  слаб. снег  10/0 средняя 
[As op]
-14.4 -16.4 85 -14  1027.2  0.7  763  326           
03 15.02.18 280 (З) 4000 м  слаб. снег  10/0 средняя 
[Ac As]
-13.8 -15.8 85 -14  1027.6  0.3  763  325  -14.7    0.4  57  равномерный
сухой снег
100% 
09 15.02.18 тихо ()   10 км    ясно 
-8 -13.1 67 -8  1029.3  1.1  765  319           
12 15.02.18 тихо ()   10 км    10/0 верхняя 
[Ci fib]
-10.3 -12.5 84 -10  1030.3  0.9  765  322           
18 15.02.18 тихо ()   10 км  [диам. изморози 2 мм]  ясно 
-17.5 -19.4 85 -18  1031.4  0.2  766  331           
21 15.02.18 тихо ()   10 км  [диам. изморози 2 мм]  ясно 
-19.4 -18.3 100 -19  1031.8  0.3  766  334           
03 16.02.18 тихо ()   0500 м  туман [диам. изморози 3 мм]  10/10 100 м 
[St]
-19.9 -22.5 80 -20  1031.9  766  335  -20.4      57  равномерный
сухой снег
100% 
18 16.02.18 тихо ()   4000 м  дымка  10/0 верхняя 
[Ci fib]
-15.7 -17.6 85 -16  1029.9  -0.8  765  329           
21 16.02.18 тихо ()   20000 м  [диам. изморози 1 мм]  ясно 
-14.4 -16.4 85 -14  1029.2  -0.6  765  327           
00 17.02.18 тихо ()   20000 м  [диам. изморози 2 мм]  ясно 
-15.4 -17.3 85 -15  1028.9  -0.4  764  328           
03 17.02.18 тихо ()   20000 м  [диам. изморози 5 мм]  ясно 
-17.5 -19.4 85 -18  1028.5  -0.5  764  330  -17.5      57  равномерный
сухой снег
100% 
06 17.02.18 тихо ()   10 км  [диам. изморози 5 мм]  ясно 
-14 -16 85 -14  1027.7  -0.6  763  326           
09 17.02.18 тихо ()   20000 м  [диам. изморози 0 мм]  10/0 верхняя 
[Cs]
-9.7 -13.8 72 -10  1026.7  -0.9  763  320           
12 17.02.18 тихо ()   20000 м    10/8 1000 м верхняя 
[Sc|Ci fib]
-12.5 -14.5 85 -13  1026  -0.8  762  323           
18 17.02.18 тихо ()   4000 м  слаб. снег  10/0 средняя 
[As op]
-10.7 -12 90 -11  1024.1  -1  761  320           
21 17.02.18 тихо ()   20000 м  в посл. час снег  10/0 верхняя 
[Ci fib]
-11.5 -12.8 90 -12  1023.8  -0.3  761  321           
03 18.02.18 тихо ()   10 км  [диам. изморози 3 мм]  10/10 1000 м 
[Sc]
-12.3 -14.3 85 -12  1022.8  -0.6  760  322  -13    0.5  56  равномерный
сухой снег
100% 
09 18.02.18 тихо ()   10 км  [диам. изморози 0 мм]  10/0 средняя 
[Ac As]
-7.6 -11.6 73 -8  1022.3  0.1  760  316           
12 18.02.18 070 (В) 10 км    10/0 средняя 
[Ac As]
-8 -11.2 78 -10  1022.4  0.1  760  316           
18 18.02.18 250 (З) 10 км    10/0 средняя 
[As op]
-7.6 -9.8 84 -7  1021.9  -0.7  759  316           
21 18.02.18 260 (З) 10 км    10/0 
[]
-7.1 -8.8 88 -9  1021.7  -0.2  759  315           
00 19.02.18 270 (З) 10 км    ясно 
-9.5 -11.6 85 -11  1022.1  0.4  759  318           
Время (UTC), дата Ветер
(°,м/с) 
Видим.   Явления Облачность Т
(°С)
Тd
(°С)
f(%) Тe
(°С)
Pmin
(гПа)
dP
(гПа)
Po
(мм)
O2
(г/м3)
Тmin Tmax R s Состояние
почвы

Для получения пояснительной информации подведите курсор к названию столбца.

ПОГОДА Октябрьское - архив

Всё, что Вы хотите узнать о погоде Октябрьское - удобно и подробно!

Выберите нужную дату (начиная с 1 января 2015* года) и нажмите кнопку "Найти".
Будут отображены архивные сводки погоды по пункту Октябрьское, начиная с указанной даты.


Отображать данные в формате CSV (для использования в таблицах Excel)


Внимание! Наш архив погоды предназначен исключительно для личного некоммерческого использования в познавательных целях. Если Вам необходимы официальные справки о состоянии погоды (для производственных, юридических, коммерческих и т.п. целей), обращайтесь в органы Росгидромета.

*Примечание: данная дата относится к архиву по метеостанциям СССР (Россия, СНГ, Балтия).
Архив по метеостанциям Зарубежной Европы и Азии (кроме Китая) хранится 10 дней, по другим регионам земного шара (Китай, Африка, Америка, Австралия, Океания) - 1 день.

Октябрьское - район местоположения метеостанции


Название, широта, долгота, высота метеостанции:
Октябрьское 62.4°ш. 66.1°д. 72 м над ур. моря [Российская Федерация]

Дополнительная информация

В oтличие oт бoльшинства пoгoдных сайтoв мы публикуем пoдрoбную метеoинфoрмацию в детальнoм прoфессиoнальнoм фoрмате.

Характеристики температуры и влажнoсти вoздуха измеряются на высoте 2 м в тени вдали oт зданий и деревьев.
Скoрoсть ветра измеряется на высoте 10 м (на урoвне рoста челoвека скoрoсть ветра ниже в 1.5-2 раза). Если метеoстанция нахoдится в гoрoде или в лесу, тo скoрoсть ветра занижена на 2-4 м/с пo сравнению с oткрытым местoм. Скoрoсть ветра над акватoриями крупных рек и oзёр, а также на вершинах хoлмoв на 2-5 м/с выше, чем в oбычных услoвиях.
Атмoсфернoе давление в разных тoчках местнoсти мoжет значительнo oтличаться oт давления на метеoстанции, в зависимoсти oт услoвий рельефа (при пoдъёме на 10 м давление пoнижается примернo на 1 мм рт.ст.).